Regional Weather Roundup
Issued by NWS Kansas City/Pleasant Hill, MO

Home | Current Version | Previous Version | Text Only | Print | Product List | Glossary On
Versions: 1 2 3 4 5 6 7 8 9 10 11 12 13 14 15 16 17 18 19 20 21 22 23 24 25 26 27
000
ASUS43 KEAX 201510
RWREAX

WEATHER ROUNDUP FOR EASTERN KANSAS AND NORTHWEST MISSOURI
NATIONAL WEATHER SERVICE KANSAS CITY/PLEASANT HILL MO
1000 AM CDT WED SEP 20 2017

KSZ040-057-103>105-MOZ028-029-037-043-201600-
...KANSAS CITY METROPOLITAN AREA...

CITY           SKY/WX    TMP DP  RH WIND       PRES   REMARKS
K.C. INTL      MOSUNNY   79  72  79 S20G25    29.79S
K.C. DOWNTOWN  SUNNY     82  73  74 S16       29.79S
LEES SUMMIT    SUNNY     80  73  79 SW18G28   29.82R
OLATHE - IXD   MOSUNNY   79  72  79 S17G23    29.82R
OLATHE - OJC   MOSUNNY   78  73  84 S15G23    29.82R
LAWRENCE       MOSUNNY   80  72  76 S14G21    29.79R

$$

MOZ001>008-011>017-020>025-030>033-038>040-044>046-053-054-201600-
...NORTHERN AND CENTRAL MISSOURI...

CITY           SKY/WX    TMP DP  RH WIND       PRES   REMARKS
ST. JOSEPH     SUNNY     80  72  76 S14       29.77R
MOSBY          SUNNY     79  70  73 S8G16     29.80S
WARRENSBURG    MOSUNNY   79  70  73 S15G22    29.84R
WHITEMAN AFB   MOSUNNY   81  79  93 SW18G28   29.83R HX  91
CLINTON        SUNNY     81  73  78 SW12G21   29.86R
SEDALIA        SUNNY     81  73  76 SW13G25   29.87R
WARSAW         NOT AVBL
CHILLICOTHE      N/A     79  73  82 S13G21    29.81S
KIRKSVILLE     SUNNY     80  71  74 S16G23    29.85R

$$

MOZ041-047>049-056>058-063>065-088>090-097-201600-
...EASTERN AND SOUTHERN MISSOURI...

CITY           SKY/WX    TMP DP  RH WIND       PRES   REMARKS
ST. LOUIS INTL MOSUNNY   83  72  69 S13       29.92S
SPIRIT OF STL  MOSUNNY   81  73  76 S9        29.91R
COLUMBIA       SUNNY     80  72  76 S12G18    29.89R
JEFFERSON CITY SUNNY     80  71  74 S9        29.88R
ROLLA          SUNNY     82  72  71 SW14      29.94R
OSAGE BEACH    MOSUNNY   80  73  79 S9        29.91R
SPRINGFIELD    SUNNY     79  73  82 S16       29.91R
BRANSON        MOSUNNY   82  72  69 SW5       29.95R
JOPLIN         SUNNY     82  74  76 S21G29    29.87R
WEST PLAINS    SUNNY     81  71  71 S12       29.97R

$$

IAZ060-094-KSZ022-034>040-054-083-096-NEZ052-066-093-201600-
...KANSAS...SOUTHEAST NEBRASKA AND IOWA...

CITY           SKY/WX    TMP DP  RH WIND       PRES   REMARKS
TOPEKA         SUNNY     80  71  74 S15       29.77R
MANHATTAN      SUNNY     80  67  64 SW12      29.77R
EMPORIA        SUNNY     79  69  71 S16       29.79S
CHANUTE        MOSUNNY   81  72  74 S20G28    29.83R
WICHITA        MOSUNNY   81  67  62 SW16      29.79R
OMAHA          SUNNY     70  54  56 N18       29.79R
LINCOLN        SUNNY     71  52  50 N12       29.82R
FALLS CITY     SUNNY     79  69  71 SW12      29.76R
LAMONI         SUNNY     79  71  76 S17       29.79R
DES MOINES     MOSUNNY   81  70  69 S12       29.74S

$$





USA.gov is the U.S. government's official web portal to all federal, state and local government web resources and services.